Time,TemperatureF,DewpointF,PressureIn,WindDirection,WindDirectionDegrees,WindSpeedMPH,WindSpeedGustMPH,Humidity,HourlyPrecipIn,Conditions,Clouds,dailyrainin,SoftwareType,DateUTC
2012-06-24 00:13:00,56.4,45.0,29.80,North,5,1.0,2.0,65,0.00,,,0.00,weatherlink.com 1.10,2012-06-24 07:13:00,
2012-06-24 00:28:00,56.0,45.0,29.80,North,6,0.0,2.0,66,0.00,,,0.00,weatherlink.com 1.10,2012-06-24 07:28:00,
2012-06-24 00:43:00,55.5,44.0,29.80,NNE,16,1.0,1.0,65,0.00,,,0.00,weatherlink.com 1.10,2012-06-24 07:43:00,
2012-06-24 00:58:00,52.9,42.0,29.80,North,5,1.0,2.0,66,0.00,,,0.00,weatherlink.com 1.10,2012-06-24 07:58:00,
2012-06-24 01:13:00,53.6,41.0,29.80,North,1,2.0,2.0,62,0.00,,,0.00,weatherlink.com 1.10,2012-06-24 08:13:00,
2012-06-24 01:28:00,51.3,38.0,29.81,NNE,22,1.0,2.0,61,0.00,,,0.00,weatherlink.com 1.10,2012-06-24 08:28:00,
2012-06-24 01:43:00,50.4,35.0,29.81,NNE,16,2.0,2.0,55,0.00,,,0.00,weatherlink.com 1.10,2012-06-24 08:43:00,
2012-06-24 01:58:00,52.5,39.0,29.81,North,11,1.0,3.0,61,0.00,,,0.00,weatherlink.com 1.10,2012-06-24 08:58:00,
2012-06-24 02:13:00,52.3,33.0,29.81,NNE,20,2.0,3.0,49,0.00,,,0.00,weatherlink.com 1.10,2012-06-24 09:13:00,
2012-06-24 02:28:00,50.6,33.0,29.81,NNE,26,2.0,2.0,51,0.00,,,0.00,weatherlink.com 1.10,2012-06-24 09:28:00,
2012-06-24 02:43:00,50.1,32.0,29.82,NNE,19,1.0,2.0,51,0.00,,,0.00,weatherlink.com 1.10,2012-06-24 09:43:00,
2012-06-24 02:58:00,51.0,33.0,29.82,NNE,22,2.0,2.0,50,0.00,,,0.00,weatherlink.com 1.10,2012-06-24 09:58:00,
2012-06-24 03:13:00,50.3,32.0,29.82,NNE,13,1.0,2.0,49,0.00,,,0.00,weatherlink.com 1.10,2012-06-24 10:13:00,
2012-06-24 03:28:00,52.7,31.0,29.82,NNE,20,2.0,3.0,44,0.00,,,0.00,weatherlink.com 1.10,2012-06-24 10:28:00,
2012-06-24 03:43:00,51.5,31.0,29.82,North,6,2.0,2.0,46,0.00,,,0.00,weatherlink.com 1.10,2012-06-24 10:43:00,
2012-06-24 03:58:00,53.4,35.0,29.82,NNE,12,2.0,3.0,50,0.00,,,0.00,weatherlink.com 1.10,2012-06-24 10:58:00,
2012-06-24 04:13:00,54.2,35.0,29.82,NNE,18,2.0,3.0,48,0.00,,,0.00,weatherlink.com 1.10,2012-06-24 11:13:00,
2012-06-24 04:28:00,51.4,33.0,29.83,NNE,23,2.0,2.0,49,0.00,,,0.00,weatherlink.com 1.10,2012-06-24 11:28:00,
2012-06-24 04:43:00,49.8,31.0,29.83,NNE,27,1.0,2.0,48,0.00,,,0.00,weatherlink.com 1.10,2012-06-24 11:43:00,
2012-06-24 04:58:00,49.2,32.0,29.84,NE,37,0.0,2.0,52,0.00,,,0.00,weatherlink.com 1.10,2012-06-24 11:58:00,
2012-06-24 05:13:00,49.1,33.0,29.84,NE,39,0.0,1.0,54,0.00,,,0.00,weatherlink.com 1.10,2012-06-24 12:13:00,
2012-06-24 05:28:00,49.9,33.0,29.85,NE,35,1.0,1.0,53,0.00,,,0.00,weatherlink.com 1.10,2012-06-24 12:28:00,
2012-06-24 05:43:00,50.6,33.0,29.85,NNE,26,2.0,2.0,51,0.00,,,0.00,weatherlink.com 1.10,2012-06-24 12:43:00,
2012-06-24 05:58:00,51.3,33.0,29.86,NNE,27,2.0,2.0,50,0.00,,,0.00,weatherlink.com 1.10,2012-06-24 12:58:00,
2012-06-24 06:13:00,51.7,33.0,29.86,NNE,27,1.0,2.0,50,0.00,,,0.00,weatherlink.com 1.10,2012-06-24 13:13:00,
2012-06-24 06:28:00,50.7,34.0,29.86,NNE,18,0.0,1.0,54,0.00,,,0.00,weatherlink.com 1.10,2012-06-24 13:28:00,
2012-06-24 06:43:00,50.6,34.0,29.87,NE,46,2.0,2.0,54,0.00,,,0.00,weatherlink.com 1.10,2012-06-24 13:43:00,
2012-06-24 06:58:00,51.0,35.0,29.87,NNE,23,1.0,2.0,55,0.00,,,0.00,weatherlink.com 1.10,2012-06-24 13:58:00,
2012-06-24 07:13:00,53.5,37.0,29.88,NNE,18,1.0,2.0,53,0.00,,,0.00,weatherlink.com 1.10,2012-06-24 14:13:00,
2012-06-24 07:28:00,56.5,40.0,29.88,NNE,19,0.0,1.0,54,0.00,,,0.00,weatherlink.com 1.10,2012-06-24 14:28:00,
2012-06-24 07:44:00,58.7,41.0,29.88,NE,36,1.0,1.0,53,0.00,,,0.00,weatherlink.com 1.10,2012-06-24 14:44:00,
2012-06-24 07:59:00,60.4,42.0,29.89,NNE,30,0.0,0.0,52,0.00,,,0.00,weatherlink.com 1.10,2012-06-24 14:59:00,
2012-06-24 08:14:00,61.3,40.0,29.89,NNE,30,0.0,0.0,46,0.00,,,0.00,weatherlink.com 1.10,2012-06-24 15:14:00,
2012-06-24 08:29:00,62.5,40.0,29.90,NNE,30,0.0,1.0,44,0.00,,,0.00,weatherlink.com 1.10,2012-06-24 15:29:00,
2012-06-24 08:44:00,63.7,42.0,29.90,NNE,30,0.0,1.0,46,0.00,,,0.00,weatherlink.com 1.10,2012-06-24 15:44:00,
2012-06-24 08:59:00,64.9,43.0,29.90,SSW,208,0.0,1.0,45,0.00,,,0.00,weatherlink.com 1.10,2012-06-24 15:59:00,
2012-06-24 09:14:00,65.8,42.0,29.90,SW,215,1.0,1.0,42,0.00,,,0.00,weatherlink.com 1.10,2012-06-24 16:14:00,
2012-06-24 09:29:00,66.7,42.0,29.90,SSW,212,0.0,1.0,41,0.00,,,0.00,weatherlink.com 1.10,2012-06-24 16:29:00,
2012-06-24 09:44:00,67.8,43.0,29.90,SW,215,0.0,2.0,41,0.00,,,0.00,weatherlink.com 1.10,2012-06-24 16:44:00,
2012-06-24 09:59:00,68.3,44.0,29.90,SSW,208,1.0,2.0,42,0.00,,,0.00,weatherlink.com 1.10,2012-06-24 16:59:00,
2012-06-24 10:14:00,69.0,42.0,29.90,SW,221,0.0,1.0,38,0.00,,,0.00,weatherlink.com 1.10,2012-06-24 17:14:00,
2012-06-24 10:29:00,70.2,43.0,29.90,SSW,212,1.0,2.0,37,0.00,,,0.00,weatherlink.com 1.10,2012-06-24 17:29:00,
2012-06-24 10:44:00,71.0,43.0,29.90,SSW,208,2.0,3.0,36,0.00,,,0.00,weatherlink.com 1.10,2012-06-24 17:44:00,
2012-06-24 10:59:00,72.5,43.0,29.91,SW,215,1.0,2.0,35,0.00,,,0.00,weatherlink.com 1.10,2012-06-24 17:59:00,
2012-06-24 11:14:00,73.1,44.0,29.91,SW,218,0.0,2.0,35,0.00,,,0.00,weatherlink.com 1.10,2012-06-24 18:14:00,
2012-06-24 11:29:00,75.2,43.0,29.91,SW,214,0.0,3.0,32,0.00,,,0.00,weatherlink.com 1.10,2012-06-24 18:29:00,
2012-06-24 11:44:00,77.0,45.0,29.91,SW,214,1.0,3.0,32,0.00,,,0.00,weatherlink.com 1.10,2012-06-24 18:44:00,
2012-06-24 11:59:00,78.1,45.0,29.91,SSW,210,0.0,2.0,31,0.00,,,0.00,weatherlink.com 1.10,2012-06-24 18:59:00,
2012-06-24 12:15:00,78.7,49.0,29.91,SSW,212,0.0,4.0,35,0.00,,,0.00,weatherlink.com 1.10,2012-06-24 19:15:00,
2012-06-24 12:30:00,79.5,45.0,29.91,SSW,212,0.0,3.0,30,0.00,,,0.00,weatherlink.com 1.10,2012-06-24 19:30:00,
2012-06-24 12:45:00,80.2,45.0,29.90,SSW,210,2.0,4.0,29,0.00,,,0.00,weatherlink.com 1.10,2012-06-24 19:45:00,
2012-06-24 13:00:00,80.5,45.0,29.90,SSW,196,3.0,4.0,29,0.00,,,0.00,weatherlink.com 1.10,2012-06-24 20:00:00,
2012-06-24 13:15:00,81.4,45.0,29.90,SW,214,1.0,3.0,28,0.00,,,0.00,weatherlink.com 1.10,2012-06-24 20:15:00,
2012-06-24 13:30:00,80.9,46.0,29.90,SW,222,0.0,5.0,29,0.00,,,0.00,weatherlink.com 1.10,2012-06-24 20:30:00,
2012-06-24 13:45:00,81.9,47.0,29.90,SSW,212,0.0,4.0,29,0.00,,,0.00,weatherlink.com 1.10,2012-06-24 20:45:00,
2012-06-24 14:00:00,82.7,47.0,29.90,SW,215,0.0,4.0,29,0.00,,,0.00,weatherlink.com 1.10,2012-06-24 21:00:00,
2012-06-24 14:15:00,82.0,48.0,29.90,SE,141,0.0,3.0,30,0.00,,,0.00,weatherlink.com 1.10,2012-06-24 21:15:00,
2012-06-24 14:30:00,82.1,46.0,29.90,SW,224,0.0,3.0,28,0.00,,,0.00,weatherlink.com 1.10,2012-06-24 21:30:00,
2012-06-24 14:45:00,81.8,47.0,29.90,SW,214,1.0,5.0,29,0.00,,,0.00,weatherlink.com 1.10,2012-06-24 21:45:00,
2012-06-24 15:00:00,82.2,48.0,29.90,NW,316,0.0,1.0,30,0.00,,,0.00,weatherlink.com 1.10,2012-06-24 22:00:00,
2012-06-24 15:15:00,82.1,49.0,29.89,WNW,300,0.0,3.0,31,0.00,,,0.00,weatherlink.com 1.10,2012-06-24 22:15:00,
2012-06-24 15:30:00,81.1,48.0,29.89,SW,215,0.0,4.0,31,0.00,,,0.00,weatherlink.com 1.10,2012-06-24 22:30:00,
2012-06-24 15:45:00,80.5,48.0,29.89,ENE,61,1.0,3.0,32,0.00,,,0.00,weatherlink.com 1.10,2012-06-24 22:45:00,
2012-06-24 16:00:00,80.5,46.0,29.89,West,276,0.0,1.0,30,0.00,,,0.00,weatherlink.com 1.10,2012-06-24 23:00:00,
2012-06-24 16:15:00,80.7,48.0,29.89,NNW,347,0.0,2.0,32,0.00,,,0.00,weatherlink.com 1.10,2012-06-24 23:15:00,
2012-06-24 16:30:00,80.5,49.0,29.88,NE,41,1.0,2.0,33,0.00,,,0.00,weatherlink.com 1.10,2012-06-24 23:30:00,
2012-06-24 16:45:00,78.8,48.0,29.88,NNE,25,0.0,4.0,34,0.00,,,0.00,weatherlink.com 1.10,2012-06-24 23:45:00,
2012-06-24 17:01:00,77.2,48.0,29.87,NNE,30,2.0,5.0,36,0.00,,,0.00,weatherlink.com 1.10,2012-06-25 00:01:00,
2012-06-24 17:15:00,75.4,49.0,29.87,WNW,295,1.0,3.0,39,0.00,,,0.00,weatherlink.com 1.10,2012-06-25 00:15:00,
2012-06-24 17:30:00,74.3,48.0,29.87,SSW,210,0.0,4.0,39,0.00,,,0.00,weatherlink.com 1.10,2012-06-25 00:30:00,
2012-06-24 17:45:00,73.9,47.0,29.87,NE,51,2.0,3.0,39,0.00,,,0.00,weatherlink.com 1.10,2012-06-25 00:45:00,
2012-06-24 18:00:00,73.1,47.0,29.87,North,351,0.0,3.0,40,0.00,,,0.00,weatherlink.com 1.10,2012-06-25 01:00:00,
2012-06-24 18:15:00,71.4,47.0,29.87,NW,321,1.0,5.0,42,0.00,,,0.00,weatherlink.com 1.10,2012-06-25 01:15:00,
2012-06-24 18:30:00,69.9,47.0,29.87,NNW,338,1.0,4.0,44,0.00,,,0.00,weatherlink.com 1.10,2012-06-25 01:30:00,
2012-06-24 18:45:00,68.7,46.0,29.88,NE,47,2.0,4.0,45,0.00,,,0.00,weatherlink.com 1.10,2012-06-25 01:45:00,
2012-06-24 19:00:00,68.1,46.0,29.88,NW,311,0.0,2.0,45,0.00,,,0.00,weatherlink.com 1.10,2012-06-25 02:00:00,
2012-06-24 19:15:00,67.3,46.0,29.88,NNE,18,0.0,2.0,46,0.00,,,0.00,weatherlink.com 1.10,2012-06-25 02:15:00,
2012-06-24 19:30:00,65.9,46.0,29.88,ENE,64,1.0,3.0,49,0.00,,,0.00,weatherlink.com 1.10,2012-06-25 02:30:00,
2012-06-24 19:45:00,64.6,46.0,29.89,NE,47,0.0,3.0,52,0.00,,,0.00,weatherlink.com 1.10,2012-06-25 02:45:00,
2012-06-24 20:00:00,62.8,46.0,29.89,North,8,0.0,2.0,54,0.00,,,0.00,weatherlink.com 1.10,2012-06-25 03:00:00,
2012-06-24 20:15:00,61.3,45.0,29.89,North,354,0.0,1.0,56,0.00,,,0.00,weatherlink.com 1.10,2012-06-25 03:15:00,
2012-06-24 20:30:00,59.1,45.0,29.89,North,355,1.0,1.0,59,0.00,,,0.00,weatherlink.com 1.10,2012-06-25 03:30:00,
2012-06-24 20:45:00,56.9,40.0,29.89,North,9,0.0,2.0,54,0.00,,,0.00,weatherlink.com 1.10,2012-06-25 03:45:00,
2012-06-24 21:00:00,54.6,38.0,29.90,NE,40,1.0,2.0,53,0.00,,,0.00,weatherlink.com 1.10,2012-06-25 04:00:00,
2012-06-24 21:15:00,54.4,40.0,29.90,NNE,29,1.0,2.0,58,0.00,,,0.00,weatherlink.com 1.10,2012-06-25 04:15:00,
2012-06-24 21:30:00,54.2,40.0,29.90,NNE,29,0.0,1.0,59,0.00,,,0.00,weatherlink.com 1.10,2012-06-25 04:30:00,
2012-06-24 21:45:00,53.7,39.0,29.91,NNE,33,1.0,2.0,57,0.00,,,0.00,weatherlink.com 1.10,2012-06-25 04:45:00,
2012-06-24 22:00:00,52.8,37.0,29.91,NNE,18,2.0,2.0,56,0.00,,,0.00,weatherlink.com 1.10,2012-06-25 05:00:00,
2012-06-24 22:15:00,53.0,34.0,29.92,NNE,26,1.0,2.0,49,0.00,,,0.00,weatherlink.com 1.10,2012-06-25 05:15:00,
2012-06-24 22:30:00,53.4,33.0,29.92,NNE,20,2.0,2.0,46,0.00,,,0.00,weatherlink.com 1.10,2012-06-25 05:30:00,
2012-06-24 22:45:00,52.3,33.0,29.92,NNE,19,2.0,2.0,48,0.00,,,0.00,weatherlink.com 1.10,2012-06-25 05:45:00,
2012-06-24 23:00:00,52.6,34.0,29.92,NNE,23,1.0,2.0,50,0.00,,,0.00,weatherlink.com 1.10,2012-06-25 06:00:00,
2012-06-24 23:15:00,52.6,35.0,29.92,NNE,23,1.0,2.0,51,0.00,,,0.00,weatherlink.com 1.10,2012-06-25 06:15:00,
2012-06-24 23:30:00,52.9,37.0,29.92,NNE,18,1.0,2.0,55,0.00,,,0.00,weatherlink.com 1.10,2012-06-25 06:30:00,
2012-06-24 23:45:00,53.5,37.0,29.92,NNE,22,2.0,2.0,55,0.00,,,0.00,weatherlink.com 1.10,2012-06-25 06:45:00,